STARLINK-31974, 59885

Orbit data source: Space-Track

STARLINK-31974, 59885 is a payload satellite owned by SpaceX/Seattle (US) in LEO that was launched on Tue, 28 May 2024 UTC via an FALCON 9 launch vehicle from the Air Force Eastern Test Range (AFETR). Payload-class satellites include a variety of spacecraft equipped with specific instruments for various scientific and technological missions. These include communications satellites like Starlink; space stations such as the ISS; scientific satellites like the Hubble; Earth observation satellites from companies like Planet Labs, Umbra, and HawkEye 360; GPS; miniature CubeSats for education and research; and military/defense satellites.

Loading next visibility...
Identifier
59885, 2024-100A
Orbit
LEO
Country
Flag of USUS
Related business
Manufacturer
SpaceX/Seattle
Mission
Operational Commercial Communications
Bus & Motor
STARLINK V2M, Unknown motor
Mass
730 kg wet, ~700 kg dry
Launch date (UTC)
2024-05-28 (2 years ago)
Launch vehicle
FALCON 9
Launch site
Air Force Eastern Test Range (AFETR)
Object type
Payload
Rocket body
Debris
Shape & HBR
Box + 2 Pan, 17.7 m
Radar Cross Section
33.884 m², Large (>1 m²)

Expand to show TLE details & history
Last TLE update: 7 hours ago

TLE from 7 hours ago
0 STARLINK-31974
1 59885U 24100A   26126.46997486 -.00001337  00000-0 -39078-4 0  9999
2 59885  43.0022 159.0863 0001000 253.6449 106.4293 15.27578083109892
Epoch: 2026-05-06T11:16Z
TLE epoch observation values (Epoch: 2026-05-06T11:16:45.827Z)
Latitude
-0.00002°
Longitude
125.56532°
Altitude
483.025 km
Speed
7.626 km/s
True Right ascension
10h 36m 20s
True Declination
0° 00' 00"
Sunlit
Object was in full shadow at epoch
Visualization orbit readout
Latitude
Unknown
Longitude
Unknown
Altitude
Unknown
Speed
Unknown
Apparent Right ascension
Unknown
Apparent Declination
Unknown
Sunlit
N/A
Visualization observer readout
Local Sidereal Time
02:00:53
Azimuth
Unknown
Elevation
Unknown
Doppler factor
Unknown
Orbital elements
Apogee altitude
485.686 km
Perigee altitude
484.313 km
Semi-major axis
6,863.137 km
Eccentricity
0.0001
Inclination
43.0022°
RAAN
159.0863°
Arg. of periapsis
253.6449°
True anomaly
106.44029°
Mean anomaly
106.4293°
Eccentric anomaly
106.4348°
Mean motion
3.81733 °/min
Orbital period
94.31 mins
BSTAR
-0.000039078
Loading maneuver chart data...
Computing Atmospheric mass density...
Loading historical data...
Loading historical data...
Loading historical data...
Loading historical data...
Loading historical data...
Loading historical data...
Loading historical data...

Documentation

Showing up to 5 results
|